Location: Unspecified
(33.9239°N, 118.0544°W)
Time: 08:07:37
(UTC-07:00)

Cosmos 2058 - Visible Passes

Search period start: 24 April 2017 00:00
Search period end: 04 May 2017 00:00
Orbit: 563 x 586 km, 82.5° (Epoch: 22 April)

Date Brightness Start Highest point End Pass type
(mag) Time Alt. Az. Time Alt. Az. Time Alt. Az.
28 Apr 6.4 05:15:07 10° E 05:16:05 11° E 05:17:03 10° ENE visible
29 Apr 6.0 05:17:01 10° ESE 05:19:21 15° E 05:21:42 10° NE visible
30 Apr 5.8 05:19:36 10° SE 05:22:39 20° E 05:25:42 10° NE visible
01 May 5.2 05:22:27 10° SSE 05:25:58 27° E 05:29:28 10° NNE visible
02 May 4.5 05:25:28 10° SSE 05:29:17 38° E 05:33:06 10° NNE visible
03 May 3.8 05:28:37 10° S 05:32:38 53° E 05:36:38 10° NNE visible
